Time,TemperatureF,DewpointF,PressureIn,WindDirection,WindDirectionDegrees,WindSpeedMPH,WindSpeedGustMPH,Humidity,HourlyPrecipIn,Conditions,Clouds,dailyrainin,SoftwareType,DateUTC
2013-05-24 00:00:00,60.7,55.8,29.88,SSW,202,2.0,17.0,84,0.00,,OVC,0.00,VWS V14.01,2013-05-24 04:00:00,
2013-05-24 01:00:00,60.0,53.8,29.87,SW,225,4.0,18.0,80,0.00,,OVC,0.00,VWS V14.01,2013-05-24 05:00:00,
2013-05-24 02:00:00,59.4,51.8,29.87,SSW,202,4.0,21.0,76,0.00,,OVC,0.00,VWS V14.01,2013-05-24 06:00:00,
2013-05-24 03:00:00,58.4,51.9,29.87,SSW,202,2.0,18.0,79,0.00,,OVC,0.00,VWS V14.01,2013-05-24 07:00:00,
2013-05-24 04:00:00,57.3,50.8,29.87,SW,225,2.0,12.0,79,0.00,,OVC,0.00,VWS V14.01,2013-05-24 08:00:00,
2013-05-24 05:00:00,56.5,50.8,29.90,SW,225,1.0,9.0,81,0.00,,OVC,0.00,VWS V14.01,2013-05-24 09:00:00,
2013-05-24 06:00:00,56.9,50.5,29.89,SSW,202,1.0,9.0,79,0.00,,OVC,0.00,VWS V14.01,2013-05-24 10:00:00,
2013-05-24 07:00:00,56.9,50.8,29.92,SSW,202,2.0,12.0,80,0.00,,OVC,0.00,VWS V14.01,2013-05-24 11:00:00,
2013-05-24 08:00:00,57.0,50.9,29.95,West,270,4.0,23.0,80,0.00,,OVC,0.00,VWS V14.01,2013-05-24 12:00:00,
2013-05-24 09:00:00,57.6,51.5,29.99,WSW,248,2.0,15.0,80,0.00,,OVC,0.00,VWS V14.01,2013-05-24 13:00:00,
2013-05-24 10:00:00,59.1,50.5,30.02,SW,225,2.0,11.0,73,0.00,,OVC,0.00,VWS V14.01,2013-05-24 14:00:00,
2013-05-24 11:00:00,58.9,48.0,30.05,SW,225,2.0,12.0,67,0.00,,OVC,0.00,VWS V14.01,2013-05-24 15:00:00,
2013-05-24 12:00:00,59.9,46.9,30.07,SSW,202,2.0,15.0,62,0.00,,OVC,0.00,VWS V14.01,2013-05-24 16:00:00,
2013-05-24 13:00:00,61.8,41.4,30.08,SW,225,3.0,14.0,47,0.00,,OVC,0.00,VWS V14.01,2013-05-24 17:00:00,
2013-05-24 14:00:00,64.2,40.7,30.08,SW,225,3.0,21.0,42,0.00,,OVC,0.00,VWS V14.01,2013-05-24 18:00:00,
2013-05-24 15:00:00,65.0,38.8,30.09,SSW,202,2.0,14.0,38,0.00,,OVC,0.00,VWS V14.01,2013-05-24 19:00:00,
2013-05-24 16:00:00,65.5,41.8,30.10,SSW,202,2.0,13.0,42,0.00,,OVC,0.00,VWS V14.01,2013-05-24 20:00:00,
2013-05-24 17:00:00,65.5,39.2,30.09,SW,225,3.0,15.0,38,0.00,,OVC,0.00,VWS V14.01,2013-05-24 21:00:00,
2013-05-24 18:00:00,65.4,37.8,30.10,SW,225,2.0,13.0,36,0.00,,OVC,0.00,VWS V14.01,2013-05-24 22:00:00,
2013-05-24 19:00:00,64.0,37.9,30.12,SW,225,2.0,11.0,38,0.00,,OVC,0.00,VWS V14.01,2013-05-24 23:00:00,
2013-05-24 20:00:00,60.4,40.1,30.13,SW,225,1.0,6.0,47,0.00,,OVC,0.00,VWS V14.01,2013-05-25 00:00:00,
2013-05-24 21:00:00,57.7,40.2,30.15,WSW,248,1.0,7.0,52,0.00,,OVC,0.00,VWS V14.01,2013-05-25 01:00:00,
2013-05-24 22:00:00,55.2,39.3,30.16,SSW,202,1.0,9.0,55,0.00,,OVC,0.00,VWS V14.01,2013-05-25 02:00:00,
2013-05-24 23:00:00,54.5,39.6,30.19,SW,225,1.0,7.0,57,0.00,,OVC,0.00,VWS V14.01,2013-05-25 03:00:00,